Flag for South Korea Weather past 2 weeks in Seoul, South Korea

Now
73 °F

Mostly cloudy.


Feels Like: 76 °F
Forecast: 68 / 79 °F
Wind: 7 mph from Southwest

Location: Seoul / Kimp'O International Airport

Current Time: Jun 30, 2015 at 11:32:56 PM

Latest Report: Jun 30, 2015 at 10:00 PM


Visibility: 4 mi

Pressure: 29.39 "Hg

Humidity: 69%

Dew point: 63 °F

Location of SeoulLocation

Historic Weather in Seoul — Graph

°F

Seoul temperature yesterday

Maximum temperature yesterday: 84 °F (at 1:00 PM)
Minimum temperature yesterday: 66 °F (at 5:00 AM)
Average temperature yesterday: 75 °F

Past Weeks' High & Low Weather Summary

 TemperatureHumidityPressure
High86 °F (Jun 18, 5:00 PM)94% (Jun 21, 12:00 AM)29.89 "Hg (Jun 21, 12:00 AM)
Low61 °F (Jun 21, 12:00 AM)33% (Jun 18, 5:00 PM)29.39 "Hg (Jun 26, 5:00 AM)
Average74 °F65%29.71 "Hg
* Reported Jun 15 10:00 PM — Jun 30 10:00 PM, Seoul, Weather by CustomWeather, © 2015

Note: Actual official high and low records may vary slightly from our data, if they occured in-between our weather recording intervals... More about our weather records

Advertising

Seoul weather history for previous 24 hours

 ConditionsComfort  
Time TempWeatherWind HumidityBarometerVisibility
10:00 PM
Tue, Jun 30
73 °FMostly cloudy.7 mph69%29.39 "Hg4 mi
9:00 PM73 °FMostly cloudy.7 mph65%29.39 "Hg5 mi
8:00 PM72 °FFog.14 mph73%29.39 "Hg3 mi
7:53 PM73 °FFog.13 mph69%29.39 "Hg3 mi
7:00 PM75 °FLight rain. Mostly cloudy.3 mph65%29.39 "Hg4 mi
6:00 PM79 °FMore clouds than sun.9 mph54%29.39 "HgN/A
5:00 PM81 °FBroken clouds.10 mph54%29.39 "HgN/A
4:00 PM82 °FBroken clouds.9 mph45%29.42 "HgN/A
3:00 PM82 °FBroken clouds.9 mph55%29.42 "HgN/A
2:00 PM82 °FBroken clouds.8 mph48%29.45 "HgN/A
1:00 PM82 °FBroken clouds.3 mph48%29.47 "HgN/A
12:00 PM84 °FBroken clouds.6 mph45%29.50 "HgN/A
11:00 AM82 °FBroken clouds.2 mph48%29.53 "Hg5 mi
10:00 AM81 °FBroken clouds.2 mph58%29.53 "Hg4 mi
9:00 AM77 °FBroken clouds.2 mph69%29.56 "Hg3 mi
8:00 AM73 °FFog.1 mph78%29.59 "Hg3 mi
7:00 AM73 °FFog.2 mph78%29.59 "Hg3 mi
6:00 AM72 °FPartly sunny.3 mph83%29.62 "Hg4 mi
5:00 AM72 °FPassing clouds.1 mph83%29.62 "Hg4 mi
4:00 AM72 °FPartly cloudy.3 mph83%29.62 "Hg4 mi
3:00 AM72 °FPartly cloudy.No wind83%29.62 "Hg4 mi
2:00 AM72 °FPartly cloudy.3 mph83%29.65 "Hg4 mi
1:00 AM72 °FMostly cloudy.1 mph83%29.65 "Hg4 mi
12:00 AM72 °FLight rain. Overcast.1 mph83%29.65 "Hg5 mi
11:00 PM
Mon, Jun 29
72 °FClear.6 mph78%29.68 "Hg10 mi
Weather by CustomWeather, © 2015

See weather overviewHow to use our weather pages